Tracking 25703 objects as of 2-Jul-2022
HD Live streaming from Space Station
objects crossing your sky now

NOAA 16 DEB

Track NOAA 16 DEB now!
10-day predictions


NORAD ID: 41521
Int'l Code: 2000-055MV
Perigee: 770.8 km
Apogee: 864.5 km
Inclination: 98.8 °
Period: 101.1 minutes
Semi major axis: 7188 km
RCS: Unknown
Launch date: September 21, 2000
Source: United States (US)
Launch site: AIR FORCE WESTERN TEST RANGE (AFWTR)

Note: This is SATELLITE DEBRIS
aabbcc
Your satellite tracking list
Your tracking list is empty




NASA's NSSDC Master Catalog

Two Line Element Set (TLE):
1 41521U 00055MV  22182.70640805  .00002773  00000-0  11907-2 0  9997
2 41521  98.8044 270.4777 0065174 120.2241 240.5412 14.24397804321036
Source of the keplerian elements: AFSPC